CW7794 Weather Reports


time (UTC)temp
C
wind
direction
speed
KPH
gust
KPH
rain 1hr
cm
rain 24hr
cm
rain mn
cm
humidity
%
barometer
mb
20260505235516 16 315 1.6 6.4 0.00 0.00 0.00 68 1015.3
20260505234516 16 315 3.2 8.0 0.00 0.00 0.00 68 1015.2
20260505233516 16 315 1.6 4.8 0.00 0.00 0.00 69 1015.3
20260505232516 16 315 1.6 4.8 0.00 0.00 0.00 69 1015.4
20260505231516 16 315 3.2 11.3 0.00 0.00 0.00 69 1015.4
20260505230516 16 338 1.6 6.4 0.00 0.00 0.00 69 1015.4
20260505225516 16 338 3.2 12.9 0.00 0.00 0.00 70 1015.4
20260505224518 16 338 1.6 8.0 0.00 0.00 0.00 70 1015.4
20260505223517 16 293 1.6 8.0 0.00 0.00 0.00 70 1015.5
20260505222518 16 270 6.4 14.5 0.00 0.00 0.00 70 1015.6
20260505221518 16 0.0 4.8 0.00 0.00 0.00 70 1015.6
20260505220517 16 315 1.6 6.4 0.00 0.00 0.00 71 1015.7
20260505215538 15 293 1.6 6.4 0.00 0.00 0.00 72 1015.8
20260505214517 15 338 3.2 8.0 0.00 0.00 0.00 73 1015.8
20260505213517 15 270 4.8 14.5 0.00 0.00 0.00 72 1015.9
20260505212517 15 293 1.6 9.7 0.00 0.00 0.00 72 1016.0
20260505211538 15 248 1.6 11.3 0.00 0.00 0.00 71 1015.9
20260505210517 15 0 1.6 6.4 0.00 0.00 0.00 72 1015.9
20260505205537 15 293 1.6 6.4 0.00 0.00 0.00 72 1015.9
20260505204538 15 0.0 0.0 0.00 0.00 0.00 76 1016.0
20260505203517 14 315 1.6 6.4 0.00 0.00 0.00 76 1015.9
20260505202517 14 0.0 3.2 0.00 0.00 0.00 76 1016.1
20260505201537 14 0.0 3.2 0.00 0.00 0.00 77 1016.2
20260505200538 14 45 1.6 6.4 0.00 0.00 0.00 77 1016.2
20260505195517 13 0.0 0.0 0.00 0.00 0.00 77 1016.3
20260505194517 13 0.0 3.2 0.00 0.00 0.00 77 1016.3
20260505193517 13 315 1.6 4.8 0.00 0.00 0.00 77 1016.4
20260505192517 13 0.0 0.0 0.00 0.00 0.00 78 1016.4
20260505191517 13 0.0 0.0 0.00 0.00 0.00 78 1016.3
20260505190516 13 0.0 0.0 0.00 0.00 0.00 79 1016.3
20260505185517 13 0.0 1.6 0.00 0.00 0.00 80 1016.3
20260505184517 12 0.0 1.6 0.00 0.00 0.00 81 1016.3
20260505183517 12 0.0 3.2 0.00 0.00 0.00 82 1016.3
20260505182517 13 315 6.4 16.1 0.00 0.00 0.00 78 1016.3
20260505181517 13 338 1.6 4.8 0.00 0.00 0.00 78 1016.2
20260505180537 13 338 1.6 6.4 0.00 0.00 0.00 77 1016.1
20260505175517 13 0.0 3.2 0.00 0.00 0.00 77 1016.0
20260505174516 13 0.0 4.8 0.00 0.00 0.00 77 1015.8
20260505173617 13 315 1.6 8.0 0.00 0.00 0.00 76 1015.7
20260505172536 13 0.0 3.2 0.00 0.00 0.00 76 1015.6
20260505171516 13 0.0 3.2 0.00 0.00 0.00 76 1015.6
20260505170516 13 0.0 3.2 0.00 0.00 0.00 76 1015.6
20260505165516 13 0.0 4.8 0.00 0.00 0.00 76 1015.5
20260505164516 13 270 1.6 9.7 0.00 0.00 0.00 76 1015.5
20260505163516 13 0.0 3.2 0.00 0.00 0.00 76 1015.5
20260505162516 13 315 1.6 4.8 0.00 0.00 0.00 76 1015.4
20260505161516 13 293 1.6 6.4 0.00 0.00 0.00 76 1015.3
20260505160516 13 0.0 4.8 0.00 0.00 0.00 76 1015.2
20260505152516 12 0.0 3.2 0.00 0.00 0.00 78 1015.1
20260505151516 12 0.0 0.0 0.00 0.00 0.00 78 1015.0
20260505150516 12 0.0 0.0 0.00 0.00 0.00 78 1015.1
20260505140518 12 0.0 0.0 0.00 0.00 0.00 79 1014.8
20260505124517 11 0.0 0.0 0.00 0.00 0.00 78 1014.5
20260505123517 11 0.0 0.0 0.00 0.00 0.00 78 1014.5
20260505122517 11 0.0 0.0 0.00 0.00 0.00 78 1014.7
20260505121517 12 0.0 0.0 0.00 0.00 0.00 78 1014.6
20260505120537 12 0.0 0.0 0.00 0.00 0.00 78 1014.7
20260505115517 12 0.0 1.6 0.00 0.00 0.00 78 1014.8
20260505114517 12 0.0 0.0 0.00 0.00 0.00 77 1014.7
20260505113537 12 0.0 1.6 0.00 0.00 0.00 77 1014.6
20260505112517 12 0.0 0.0 0.00 0.00 0.00 77 1014.7
20260505111517 12 0.0 1.6 0.00 0.00 0.00 76 1014.6
20260505110538 12 0.0 1.6 0.00 0.00 0.00 76 1014.8
20260505101536 12 0.0 3.2 0.00 0.00 0.00 76 1014.6
20260505100516 12 338 1.6 12.9 0.00 0.00 0.00 76 1014.7
20260505095516 12 0.0 6.4 0.00 0.00 0.00 76 1014.8
20260505094516 12 0.0 0.0 0.00 0.00 0.00 76 1014.6
20260505093617 12 0.0 4.8 0.00 0.00 0.00 76 1014.8
20260505092516 12 0.0 8.0 0.00 0.00 0.00 76 1014.9
20260505091517 12 270 1.6 11.3 0.00 0.00 0.00 77 1014.8
20260505090516 12 315 1.6 8.0 0.00 0.00 0.00 77 1015.0
20260505085537 12 338 3.2 11.3 0.00 0.00 0.00 77 1015.2
20260505084516 12 315 1.6 9.7 0.00 0.00 0.00 76 1015.3
20260505083537 12 293 6.4 12.9 0.00 0.00 0.00 75 1015.3
20260505082536 12 315 6.4 16.1 0.00 0.00 0.00 75 1015.4
20260505081516 12 338 4.8 12.9 0.00 0.00 0.00 75 1015.4
20260505080517 13 315 3.2 12.9 0.00 0.00 0.00 75 1015.4
20260505075516 13 0.0 8.0 0.00 0.00 0.00 75 1015.5
20260505074516 13 315 3.2 12.9 0.00 0.00 0.00 75 1015.5
20260505073516 13 0.0 9.7 0.00 0.00 0.00 76 1015.4
20260505072516 13 338 3.2 12.9 0.00 0.00 0.00 76 1015.3
20260505071516 13 338 3.2 14.5 0.00 0.00 0.00 76 1015.3
20260505070516 13 338 3.2 12.9 0.00 0.00 0.00 76 1015.2
20260505065517 13 315 6.4 14.5 0.00 0.00 0.00 76 1015.1
20260505064537 13 315 4.8 16.1 0.00 0.00 0.00 76 1015.1
20260505063517 13 338 1.6 11.3 0.00 0.00 0.00 75 1015.1
20260505062517 13 338 3.2 8.0 0.00 0.00 0.00 75 1015.0
20260505061517 13 0 1.6 14.5 0.00 0.00 0.00 75 1015.0
20260505060517 13 293 4.8 12.9 0.00 0.00 0.00 75 1014.9
20260505055517 13 315 3.2 12.9 0.00 0.00 0.00 75 1014.9
20260505054517 13 315 3.2 9.7 0.00 0.00 0.00 76 1015.0
20260505053517 13 338 4.8 14.5 0.00 0.00 0.00 75 1015.2
20260505052517 13 315 4.8 14.5 0.00 0.00 0.00 74 1015.3
20260505051517 13 0 3.2 14.5 0.00 0.00 0.00 75 1015.4
20260505050516 13 315 1.6 9.7 0.00 0.00 0.00 75 1015.4
20260505041516 14 338 1.6 8.0 0.00 0.00 0.00 72 1014.7
20260505040516 14 315 3.2 17.7 0.00 0.00 0.00 70 1014.7
20260505035516 14 315 3.2 12.9 0.00 0.00 0.00 72 1014.6
20260505034516 14 315 4.8 8.0 0.00 0.00 0.00 70 1014.4
20260505033516 15 315 4.8 16.1 0.00 0.00 0.00 69 1014.3
20260505032517 15 338 3.2 12.9 0.00 0.00 0.00 67 1014.1
20260505031536 15 0.0 3.2 0.00 0.00 0.00 65 1014.0
20260505030538 15 315 6.4 12.9 0.00 0.00 0.00 65 1013.9
20260505025516 15 338 6.4 14.5 0.00 0.00 0.00 65 1014.1
20260505024516 15 315 6.4 14.5 0.00 0.00 0.00 65 1014.1
20260505023516 15 315 8.0 14.5 0.00 0.00 0.00 64 1014.0
20260505022516 15 338 8.0 19.3 0.00 0.00 0.00 63 1014.0
20260505021516 15 315 9.7 19.3 0.00 0.00 0.00 63 1013.8
20260505020516 16 293 8.0 17.7 0.00 0.00 0.00 62 1013.9
20260505015517 16 315 9.7 20.9 0.00 0.00 0.00 62 1013.9
20260505014536 16 293 6.4 14.5 0.00 0.00 0.00 62 1013.8
20260505013517 16 338 9.7 19.3 0.00 0.00 0.00 61 1013.8
20260505012516 16 338 9.7 19.3 0.00 0.00 0.00 61 1013.8
20260505011517 16 315 9.7 20.9 0.00 0.00 0.00 62 1014.0
20260505010516 16 315 9.7 19.3 0.00 0.00 0.00 62 1014.0
20260505005516 16 338 11.3 19.3 0.00 0.00 0.00 62 1014.2
20260505004516 16 293 11.3 22.5 0.00 0.00 0.00 61 1014.2
20260505003536 16 315 9.7 24.1 0.00 0.00 0.00 61 1014.3
20260505002515 17 338 9.7 20.9 0.00 0.00 0.00 61 1014.3
20260505001518 16 315 11.3 19.3 0.00 0.00 0.00 62 1014.2
20260505000518 17 315 8.0 19.3 0.00 0.00 0.00 61 1014.1